GW2341 Weather Reports


Display with metric or nautical units.
time (UTC)temp
F
wind
direction
speed
MPH
gust
MPH
rain 1hr
in
rain 24hr
in
rain mn
in
humidity
%
barometer
mb
20260906064811 71 190 0.0 0.0 0.00 0.00 0.00 99 1012.2
20260906064307 71 190 0.0 0.0 0.00 0.00 0.00 99 1012.4
20260906063801 71 190 0.0 0.0 0.00 0.00 0.00 99 1012.3
20260906063257 71 190 0.0 0.0 0.00 0.00 0.00 99 1012.4
20260906062752 71 190 0.0 0.0 0.00 0.00 0.00 99 1012.5
20260906062251 71 190 0.0 0.0 0.00 0.00 0.00 99 1012.8
20260906061746 71 190 0.0 0.0 0.00 0.00 0.00 99 1012.9
20260906061243 71 190 0.0 0.0 0.00 0.00 0.00 99 1012.9
20260906060738 71 190 0.0 0.0 0.00 0.00 0.00 99 1012.8
20260906060236 71 190 0.0 0.0 0.00 0.00 0.00 99 1013.0
20260906055731 71 187 0.0 0.0 0.00 0.00 0.00 99 1013.0
20260906055226 71 187 0.0 0.0 0.00 0.00 0.00 99 1013.2
20260906054721 71 187 0.0 0.0 0.00 0.00 0.00 99 1013.3
20260906054216 71 187 0.0 0.0 0.00 0.00 0.00 99 1013.2
20260906053713 71 187 0.0 0.0 0.00 0.00 0.00 99 1013.5
20260906053208 71 187 0.0 0.0 0.00 0.00 0.00 99 1013.4
20260906052703 71 187 0.0 0.0 0.00 0.00 0.00 99 1013.3
20260906052159 72 187 0.0 0.0 0.00 0.00 0.00 99 1013.1
20260906051656 72 187 0.0 0.0 0.00 0.00 0.00 99 1013.4
20260906051155 72 187 0.0 0.0 0.00 0.00 0.00 99 1013.5
20260906050651 72 187 0.0 0.0 0.00 0.00 0.00 99 1013.3
20260906050146 72 187 0.0 0.0 0.00 0.00 0.00 99 1013.5
20260906045644 72 187 0.0 0.0 0.00 0.00 0.00 99 1013.4
20260906045139 72 187 0.0 0.0 0.00 0.00 0.00 99 1013.5
20260906044636 72 186 0.0 0.0 0.00 0.00 0.00 99 1013.7
20260906044131 72 186 0.0 0.0 0.00 0.00 0.00 99 1013.4
20260906043627 72 185 0.0 0.0 0.00 0.00 0.00 99 1013.5
20260906043122 72 185 0.0 0.0 0.00 0.00 0.00 99 1013.4
20260906042621 72 185 0.0 0.0 0.00 0.00 0.00 99 1013.3
20260906042115 72 185 0.0 0.0 0.00 0.00 0.00 99 1013.5
20260906041612 72 185 0.0 0.0 0.00 0.00 0.00 98 1013.3
20260906041106 72 185 0.0 0.0 0.00 0.00 0.00 98 1013.4
20260906040602 72 185 0.0 0.0 0.00 0.00 0.00 98 1013.4
20260906040057 72 185 0.0 0.0 0.00 0.17 0.17 98 1013.7
20260906035552 73 185 0.0 0.0 0.00 0.17 0.17 98 1013.5
20260906035048 73 185 0.0 0.0 0.00 0.17 0.17 98 1013.6
20260906034547 73 185 0.0 0.0 0.00 0.17 0.17 98 1013.6
20260906034037 73 185 0.0 0.0 0.00 0.17 0.17 98 1013.6
20260906033532 73 185 0.0 0.0 0.00 0.17 0.17 98 1013.6
20260906033028 72 187 0.0 0.0 0.00 0.17 0.17 98 1013.6
20260906032524 72 186 0.0 0.0 0.00 0.17 0.17 98 1013.8
20260906032024 72 181 0.0 0.0 0.00 0.17 0.17 98 1013.8
20260906031520 72 166 0.0 0.0 0.00 0.17 0.17 98 1013.9
20260906031015 72 166 0.0 0.0 0.00 0.17 0.17 98 1013.6
20260906030514 72 166 0.0 0.0 0.00 0.17 0.17 97 1013.7
20260906030009 72 166 0.0 0.0 0.00 0.17 0.17 97 1013.4
20260906025508 73 167 0.0 0.0 0.00 0.17 0.17 97 1013.5
20260906025006 73 166 0.0 0.0 0.00 0.17 0.17 97 1013.5
20260906024501 73 167 0.0 0.0 0.00 0.17 0.17 97 1013.4
20260906023956 73 167 0.0 0.0 0.00 0.17 0.17 97 1013.5
20260906023452 73 167 0.0 0.0 0.00 0.17 0.17 97 1013.3
20260906022947 73 167 0.0 0.0 0.00 0.17 0.17 96 1013.4
20260906022443 73 166 0.0 0.0 0.00 0.17 0.17 96 1013.5
20260906021937 73 166 0.0 0.0 0.00 0.17 0.17 96 1013.5
20260906021432 73 167 0.0 0.0 0.00 0.17 0.17 96 1013.4
20260906020926 73 166 0.0 0.0 0.00 0.17 0.17 96 1013.5
20260906020421 73 167 0.0 0.0 0.00 0.17 0.17 96 1013.7
20260906015920 73 167 0.0 0.0 0.00 0.17 0.17 97 1013.8
20260906015415 73 166 0.0 0.0 0.00 0.17 0.17 97 1013.7
20260906014914 73 166 0.0 0.0 0.00 0.17 0.17 97 1013.7
20260906014409 73 165 0.0 0.0 0.00 0.17 0.17 97 1013.7
20260906013905 73 189 1.0 2.0 0.00 0.17 0.17 98 1013.7
20260906013401 73 183 0.0 0.0 0.00 0.17 0.17 98 1013.6
20260906012856 73 183 0.0 0.0 0.00 0.17 0.17 98 1013.7
20260906012351 73 183 0.0 0.0 0.00 0.17 0.17 98 1013.6
20260906011850 73 183 0.0 0.0 0.00 0.17 0.17 98 1013.4
20260906011345 73 183 0.0 0.0 0.00 0.17 0.17 98 1013.5
20260906010841 73 183 0.0 0.0 0.00 0.17 0.17 97 1013.4
20260906010337 74 183 0.0 0.0 0.00 0.17 0.17 97 1013.6
20260906005833 74 183 0.0 0.0 0.00 0.17 0.17 97 1013.6
20260906005332 74 183 0.0 0.0 0.00 0.17 0.17 97 1013.4
20260906004830 74 183 0.0 0.0 0.00 0.17 0.17 96 1013.1
20260906004330 74 183 0.0 0.0 0.00 0.17 0.17 96 1013.1
20260906003825 74 165 0.0 0.0 0.00 0.17 0.17 96 1012.7
20260906003321 74 165 0.0 0.0 0.00 0.17 0.17 96 1012.8
20260906002816 74 165 0.0 0.0 0.00 0.17 0.17 96 1012.9
20260906002315 75 165 0.0 0.0 0.00 0.17 0.17 96 1012.6
20260906001811 75 165 0.0 0.0 0.00 0.17 0.17 95 1012.9
20260906001306 75 169 0.0 0.0 0.00 0.17 0.17 94 1012.7
20260906000801 75 171 0.0 0.0 0.00 0.17 0.17 94 1012.7
20260906000256 76 173 0.0 0.0 0.00 0.17 0.17 93 1012.9
20260905235751 76 173 0.0 0.0 0.00 0.17 0.17 93 1012.9
20260905235251 76 174 0.0 0.0 0.00 0.17 0.17 92 1013.2
20260905234746 77 174 0.0 2.0 0.00 0.17 0.17 92 1013.3
20260905234241 77 179 0.0 0.0 0.00 0.17 0.17 92 1013.0
20260905233736 77 180 0.0 0.0 0.00 0.17 0.17 90 1012.8
20260905233235 77 182 0.0 0.0 0.00 0.17 0.17 88 1012.7
20260905232730 77 183 0.0 0.0 0.00 0.17 0.17 89 1012.8
20260905232227 77 160 0.0 0.0 0.00 0.17 0.17 90 1012.9
20260905231722 77 159 0.0 0.0 0.00 0.17 0.17 90 1012.6
20260905231217 77 148 0.0 0.0 0.00 0.17 0.17 90 1012.6
20260905230713 78 183 0.0 0.0 0.00 0.17 0.17 90 1012.4
20260905230211 78 167 0.0 0.0 0.00 0.17 0.17 90 1012.4
20260905225711 78 192 0.0 0.0 0.00 0.17 0.17 90 1012.6
20260905225206 78 192 0.0 0.0 0.00 0.17 0.17 89 1012.9
20260905224705 78 181 0.0 0.0 0.00 0.17 0.17 89 1012.7
20260905224200 78 167 0.0 0.0 0.00 0.17 0.17 89 1012.6
20260905223656 78 188 0.0 2.0 0.00 0.17 0.17 88 1012.7
20260905223153 78 192 1.0 2.0 0.00 0.17 0.17 87 1012.8
20260905222649 78 190 0.0 0.0 0.00 0.17 0.17 87 1012.7
20260905222149 78 210 0.0 1.0 0.00 0.17 0.17 86 1012.6
20260905221644 78 158 0.0 1.0 0.00 0.17 0.17 85 1012.6
20260905221141 78 209 1.0 2.0 0.00 0.17 0.17 84 1012.7
20260905220636 79 175 1.0 2.0 0.00 0.17 0.17 83 1012.5
20260905220132 79 195 1.0 2.0 0.00 0.17 0.17 82 1012.5
20260905215632 80 206 0.0 1.0 0.00 0.17 0.17 84 1012.5
20260905215127 79 154 0.0 0.0 0.00 0.17 0.17 85 1012.5
20260905214623 79 144 0.0 1.0 0.00 0.17 0.17 86 1012.4
20260905214123 79 157 0.0 0.0 0.00 0.17 0.17 89 1012.5
20260905213619 79 145 0.0 2.0 0.00 0.17 0.17 89 1012.5
20260905213114 79 178 0.0 0.0 0.00 0.17 0.17 90 1012.9
20260905212609 79 180 0.0 0.0 0.00 0.17 0.17 90 1013.0
20260905212108 78 168 0.0 0.0 0.00 0.17 0.17 90 1013.3
20260905211604 78 192 0.0 0.0 0.00 0.17 0.17 91 1013.1
20260905211059 77 207 2.0 3.0 0.00 0.17 0.17 91 1013.1
20260905210555 77 158 1.0 1.0 0.00 0.17 0.17 93 1013.0
20260905210050 76 141 1.0 2.0 0.00 0.17 0.17 95 1013.0
20260905205549 76 169 0.0 0.0 0.00 0.17 0.17 96 1013.1
20260905205049 76 169 0.0 0.0 0.00 0.17 0.17 96 1012.8
20260905204543 74 160 0.0 0.0 0.00 0.17 0.17 95 1012.7
20260905204039 74 330 0.0 1.0 0.00 0.17 0.17 96 1012.7
20260905203538 74 150 0.0 0.0 0.00 0.17 0.17 96 1013.3
20260905203034 74 172 0.0 0.0 0.00 0.17 0.17 97 1013.0
20260905202529 74 171 0.0 0.0 0.00 0.17 0.17 97 1013.2
20260905202024 73 156 0.0 2.0 0.00 0.17 0.17 97 1013.1
20260905201520 73 159 1.0 2.0 0.00 0.17 0.17 97 1012.9
20260905201019 73 152 1.0 2.0 0.00 0.17 0.17 96 1013.1
20260905200515 72 170 0.0 2.0 0.00 0.17 0.17 96 1012.9
20260905200014 72 180 0.0 5.0 0.00 0.17 0.17 96 1013.8
20260905195508 72 165 0.0 5.0 0.12 0.17 0.17 95 1014.0
20260905195004 71 133 0.0 2.0 0.12 0.16 0.16 93 1013.9
20260905194458 71 165 1.0 3.0 0.00 0.14 0.14 92 1013.9
20260905193957 72 161 2.0 7.0 0.00 0.14 0.14 92 1014.0
20260905193452 71 33 3.0 9.0 0.54 0.14 0.14 92 1013.5
20260905192947 71 84 4.0 22.0 0.85 0.14 0.14 92 1013.4
20260905192442 78 181 3.0 11.0 0.19 0.03 0.03 81 1014.1
20260905191937 80 125 2.0 8.0 0.00 0.00 0.00 65 1013.8
20260905191432 83 276 11.0 14.0 0.00 0.00 0.00 65 1014.0
20260905190931 87 229 6.0 10.0 0.00 0.00 0.00 67 1013.8
20260905190429 93 182 3.0 11.0 0.00 0.00 0.00 60 1013.7
20260905185928 98 185 1.0 5.0 0.00 0.00 0.00 47 1013.0
20260905185424 97 242 3.0 5.0 0.00 0.00 0.00 49 1012.6
20260905184922 96 263 4.0 6.0 0.00 0.00 0.00 50 1012.5
20260905184417 95 184 1.0 1.0 0.00 0.00 0.00 49 1012.5
20260905183915 95 147 1.0 5.0 0.00 0.00 0.00 51 1012.7
20260905183410 95 126 2.0 5.0 0.00 0.00 0.00 51 1012.8
20260905182905 96 142 1.0 3.0 0.00 0.00 0.00 52 1012.8
20260905182404 97 157 3.0 3.0 0.00 0.00 0.00 48 1012.9
20260905181900 96 242 2.0 3.0 0.00 0.00 0.00 48 1012.9
20260905181355 98 191 0.0 2.0 0.00 0.00 0.00 48 1013.0
20260905180854 98 197 2.0 2.0 0.00 0.00 0.00 49 1013.2
20260905180349 97 179 0.0 2.0 0.00 0.00 0.00 52 1013.4
20260905175843 96 157 0.0 1.0 0.00 0.00 0.00 51 1013.4
20260905175338 97 162 1.0 3.0 0.00 0.00 0.00 54 1013.6
20260905174833 96 165 0.0 3.0 0.00 0.00 0.00 53 1013.6
20260905174329 96 146 3.0 6.0 0.00 0.00 0.00 52 1013.6
20260905173824 97 171 3.0 5.0 0.00 0.00 0.00 50 1013.7
20260905173321 96 164 0.0 1.0 0.00 0.00 0.00 53 1013.5
20260905172821 96 92 1.0 2.0 0.00 0.00 0.00 52 1013.7
20260905172318 96 125 2.0 3.0 0.00 0.00 0.00 54 1013.6
20260905171815 97 142 2.0 3.0 0.00 0.00 0.00 51 1013.7
20260905171311 97 99 0.0 1.0 0.00 0.00 0.00 52 1013.9
20260905170808 95 174 0.0 3.0 0.00 0.00 0.00 53 1014.0
20260905170303 96 162 3.0 6.0 0.00 0.00 0.00 51 1014.0
20260905165802 96 126 2.0 3.0 0.00 0.00 0.00 54 1014.2
20260905165258 97 165 1.0 2.0 0.00 0.00 0.00 53 1014.1
20260905164757 95 172 1.0 5.0 0.00 0.00 0.00 57 1014.3
20260905164252 95 207 2.0 5.0 0.00 0.00 0.00 55 1014.4
20260905163748 95 154 1.0 2.0 0.00 0.00 0.00 56 1014.6
20260905163244 95 144 2.0 5.0 0.00 0.00 0.00 55 1014.9
20260905162740 94 117 3.0 3.0 0.00 0.00 0.00 55 1014.7
20260905162239 95 182 0.0 1.0 0.00 0.00 0.00 58 1014.9
20260905161734 94 168 0.0 3.0 0.00 0.00 0.00 57 1014.8
20260905161233 93 140 0.0 3.0 0.00 0.00 0.00 57 1014.9
20260905160731 93 115 2.0 5.0 0.00 0.00 0.00 57 1014.7
20260905160226 92 140 2.0 2.0 0.00 0.00 0.00 57 1014.9
20260905155720 93 220 3.0 5.0 0.00 0.00 0.00 59 1015.0
20260905155219 93 191 0.0 1.0 0.00 0.00 0.00 59 1014.9
20260905154714 93 198 0.0 3.0 0.00 0.00 0.00 61 1015.1
20260905154209 91 180 0.0 2.0 0.00 0.00 0.00 63 1015.0
20260905153705 91 104 0.0 2.0 0.00 0.00 0.00 62 1015.3
20260905153200 91 135 1.0 2.0 0.00 0.00 0.00 64 1015.3
20260905152655 91 218 3.0 5.0 0.00 0.00 0.00 64 1015.2
20260905152150 92 235 1.0 3.0 0.00 0.00 0.00 65 1015.3
20260905151644 93 160 0.0 0.0 0.00 0.00 0.00 64 1015.3
20260905151140 93 179 0.0 2.0 0.00 0.00 0.00 66 1015.3
20260905150635 91 153 0.0 0.0 0.00 0.00 0.00 67 1015.3
20260905150134 89 161 0.0 3.0 0.00 0.00 0.00 71 1015.3
20260905145632 89 230 3.0 5.0 0.00 0.00 0.00 69 1015.4
20260905145131 89 168 1.0 1.0 0.00 0.00 0.00 71 1015.1
20260905144626 89 187 0.0 3.0 0.00 0.00 0.00 71 1015.2
20260905144125 88 208 1.0 1.0 0.00 0.00 0.00 69 1015.3
20260905143620 87 195 0.0 2.0 0.00 0.00 0.00 72 1015.3
20260905143115 87 198 2.0 2.0 0.00 0.00 0.00 72 1015.4
20260905142613 86 226 3.0 3.0 0.00 0.00 0.00 74 1015.3
20260905142108 86 218 0.0 3.0 0.00 0.00 0.00 76 1015.5
20260905141607 86 181 0.0 1.0 0.00 0.00 0.00 75 1015.4
20260905141104 85 157 0.0 2.0 0.00 0.00 0.00 78 1015.4
20260905140559 85 171 0.0 3.0 0.00 0.00 0.00 76 1015.6
20260905140058 84 183 0.0 1.0 0.00 0.00 0.00 78 1015.6
20260905135553 85 197 2.0 3.0 0.00 0.00 0.00 78 1015.6
20260905135054 84 169 0.0 0.0 0.00 0.00 0.00 79 1015.6
20260905134549 84 189 1.0 3.0 0.00 0.00 0.00 80 1015.7
20260905134047 84 159 0.0 1.0 0.00 0.00 0.00 79 1015.7
20260905133543 83 198 0.0 1.0 0.00 0.00 0.00 81 1015.8
20260905133043 83 177 0.0 3.0 0.00 0.00 0.00 81 1015.3
20260905132542 82 202 0.0 2.0 0.00 0.00 0.00 82 1015.6
20260905132037 82 181 0.0 2.0 0.00 0.00 0.00 83 1015.7
20260905131533 82 208 1.0 2.0 0.00 0.00 0.00 84 1015.6
20260905131028 82 191 1.0 1.0 0.00 0.00 0.00 84 1015.6
20260905130527 80 200 3.0 3.0 0.00 0.00 0.00 85 1015.5
20260905130023 80 240 3.0 3.0 0.00 0.00 0.00 86 1015.6
20260905125522 79 266 3.0 3.0 0.00 0.00 0.00 87 1015.6
20260905125017 79 185 1.0 3.0 0.00 0.00 0.00 88 1015.6
20260905124514 79 195 0.0 1.0 0.00 0.00 0.00 88 1015.3
20260905124010 79 177 0.0 1.0 0.00 0.00 0.00 89 1015.4
20260905123505 78 186 0.0 0.0 0.00 0.00 0.00 89 1015.5
20260905123001 78 187 0.0 1.0 0.00 0.00 0.00 90 1015.4
20260905122455 78 202 1.0 2.0 0.00 0.00 0.00 90 1015.2
20260905121950 77 209 2.0 2.0 0.00 0.00 0.00 91 1015.4
20260905121445 77 180 0.0 0.0 0.00 0.00 0.00 91 1015.2
20260905120944 77 186 0.0 0.0 0.00 0.00 0.00 92 1015.2
20260905120439 77 180 0.0 0.0 0.00 0.00 0.00 92 1015.3
20260905115934 76 173 0.0 0.0 0.00 0.00 0.00 93 1015.2
20260905115433 76 187 0.0 0.0 0.00 0.00 0.00 93 1015.1
20260905114929 76 183 0.0 0.0 0.00 0.00 0.00 94 1015.1
20260905114428 75 181 0.0 1.0 0.00 0.00 0.00 94 1015.1
20260905113921 75 185 0.0 2.0 0.00 0.00 0.00 95 1015.1
20260905113417 75 180 0.0 0.0 0.00 0.00 0.00 95 1014.9
20260905112912 75 320 0.0 0.0 0.00 0.00 0.00 95 1015.0
20260905112408 75 188 0.0 0.0 0.00 0.00 0.00 95 1014.8
20260905111903 75 188 1.0 2.0 0.00 0.00 0.00 95 1014.8
20260905111402 75 207 0.0 1.0 0.00 0.00 0.00 95 1014.6
20260905110856 75 187 0.0 0.0 0.00 0.00 0.00 95 1014.6
20260905110350 75 188 0.0 0.0 0.00 0.00 0.00 95 1014.6
20260905105846 75 194 1.0 2.0 0.00 0.00 0.00 95 1014.4
20260905105344 75 193 0.0 0.0 0.00 0.00 0.00 95 1014.6
20260905104839 75 181 0.0 0.0 0.00 0.00 0.00 94 1014.5
20260905104336 75 188 0.0 0.0 0.00 0.00 0.00 94 1014.3
20260905103835 75 188 0.0 0.0 0.00 0.00 0.00 94 1014.3
20260905103330 75 185 0.0 0.0 0.00 0.00 0.00 94 1014.2
20260905102826 75 183 0.0 0.0 0.00 0.00 0.00 93 1014.2
20260905102323 75 184 0.0 0.0 0.00 0.00 0.00 93 1014.1
20260905101823 75 181 0.0 0.0 0.00 0.00 0.00 93 1014.0
20260905101321 75 188 0.0 1.0 0.00 0.00 0.00 93 1014.1
20260905100815 76 189 1.0 2.0 0.00 0.00 0.00 92 1014.0
20260905100311 75 208 1.0 2.0 0.00 0.00 0.00 93 1014.1
20260905095810 75 191 0.0 0.0 0.00 0.00 0.00 93 1014.0
20260905095306 75 203 0.0 1.0 0.00 0.00 0.00 93 1013.9
20260905094800 75 192 0.0 0.0 0.00 0.00 0.00 92 1014.1
20260905094255 76 190 0.0 1.0 0.00 0.00 0.00 92 1014.2
20260905093754 76 196 0.0 1.0 0.00 0.00 0.00 92 1013.8
20260905093250 76 194 0.0 0.0 0.00 0.00 0.00 92 1013.9
20260905092745 76 196 0.0 0.0 0.00 0.00 0.00 92 1014.0
20260905092240 76 185 0.0 0.0 0.00 0.00 0.00 92 1013.9
20260905091735 76 188 0.0 0.0 0.00 0.00 0.00 91 1014.1
20260905091230 76 186 1.0 1.0 0.00 0.00 0.00 91 1014.1
20260905090729 76 203 0.0 0.0 0.00 0.00 0.00 91 1014.0
20260905090225 76 190 0.0 1.0 0.00 0.00 0.00 91 1014.1
20260905085724 76 187 0.0 2.0 0.00 0.00 0.00 92 1014.1
20260905085218 76 184 0.0 0.0 0.00 0.00 0.00 91 1014.0
20260905084719 76 191 1.0 1.0 0.00 0.00 0.00 91 1014.1
20260905084218 76 185 0.0 0.0 0.00 0.00 0.00 91 1014.3
20260905083714 76 192 0.0 0.0 0.00 0.00 0.00 91 1014.1
20260905083209 75 183 0.0 0.0 0.00 0.00 0.00 92 1014.3
20260905082705 75 185 0.0 0.0 0.00 0.00 0.00 92 1014.2
20260905082200 75 179 0.0 0.0 0.00 0.00 0.00 92 1014.1
20260905081655 75 166 0.0 0.0 0.00 0.00 0.00 91 1014.3
20260905081150 76 166 0.0 0.0 0.00 0.00 0.00 91 1014.3
20260905080649 76 166 0.0 0.0 0.00 0.00 0.00 91 1014.4
20260905080149 76 178 0.0 0.0 0.00 0.00 0.00 90 1014.5
20260905075649 77 178 0.0 0.0 0.00 0.00 0.00 89 1014.3
20260905075148 77 152 0.0 0.0 0.00 0.00 0.00 89 1014.5
20260905074647 77 184 0.0 1.0 0.00 0.00 0.00 89 1014.4
20260905074143 77 185 0.0 2.0 0.00 0.00 0.00 88 1014.2
20260905073639 77 200 3.0 3.0 0.00 0.00 0.00 89 1014.3
20260905073134 76 185 2.0 3.0 0.00 0.00 0.00 90 1014.2
20260905072633 76 209 0.0 2.0 0.00 0.00 0.00 91 1014.4
20260905072129 75 181 0.0 0.0 0.00 0.00 0.00 92 1014.5
20260905071625 75 187 0.0 0.0 0.00 0.00 0.00 92 1014.3
20260905071120 75 184 0.0 0.0 0.00 0.00 0.00 92 1014.6
20260905070616 75 177 0.0 0.0 0.00 0.00 0.00 92 1014.5
20260905070112 75 176 0.0 0.0 0.00 0.00 0.00 92 1014.5
20260905065609 75 176 0.0 0.0 0.00 0.00 0.00 91 1014.8
20260905065104 75 176 0.0 0.0 0.00 0.00 0.00 91 1014.7